Regional Weather Roundup
Issued by NWS

Home | Current Version | Previous Version | Graphics & Text | Print | Product List | Glossary On
Versions: 1 2 3 4 5 6 7 8 9 10 11 12 13 14 15 16 17 18 19 20 21 22 23 24 25 26 27 28 29 30 31 32 33 34 35 36 37 38 39 40 41 42 43 44 45 46 47 48 49 50
000
ASUS43 KIND 020609
RWRIN

WEATHER ROUNDUP FOR INDIANA
NATIONAL WEATHER SERVICE INDIANAPOLIS IN
200 AM EDT SUN AUG 02 2015

NOTE: "FAIR" INDICATES FEW OR NO CLOUDS BELOW 12,000 FEET WITH NO
SIGNIFICANT WEATHER AND/OR OBSTRUCTIONS TO VISIBILITY.

* - STATION DOES NOT REPORT WEATHER SUCH AS PRECIPITATION OR FOG.

+ - STATION NOT QUALITY CONTROLLED BY THE NATIONAL WEATHER SERVICE.
    USE DATA WITH CAUTION...ESPECIALLY DEWPOINT AND RELATIVE
    HUMIDITY OBSERVATIONS.

INZ001>003-010>013-019-020-020700-
NORTHWEST INDIANA

CITY           SKY/WX    TMP DP  RH WIND       PRES   REMARKS
GARY /AIRPORT/ CLEAR     76  65  67 SW7       29.90F
KNOX *+        CLEAR     66  63  88 SW5       29.91F
LA PORTE +     CLEAR     70  66  85 SW6       29.92S
6HR MIN TEMP:  70; 6HR MAX TEMP:  81;

MICHIGAN CITY+ CLEAR     68  61  77 SW6       29.91S
MONTICELLO +   MOCLDY    68  64  89 SW7       29.94S
6HR MIN TEMP:  68; 6HR MAX TEMP:  79;

RENSSELAER +   PTCLDY    68  64  88 SW5       29.94S
VALPARAISO     CLEAR     70  64  81 SW7       29.92F
6HR MIN TEMP:  70; 6HR MAX TEMP:  81;


$$

LMZ046-743>745-020700-
SOUTHERN LAKE MICHIGAN

STATION/POSITION TIME  TEMP    WIND        PRES    WAVE
                       AIR SEA DIR/SP/G            HT
                 (UTC) (F)     (DEG/KT/KT) (MB)    (FT)
BURNS HARBOR     0540   76     230/ 10/ 15 1013.2R
MICHIGAN CITY    0500   75     190/ 12/ 14   N/A
5NW MICH CITY    0600   75 74  240/ 12/ 14   N/A     2

$$

INZ004-005-014>016-021>024-020700-
NORTH CENTRAL INDIANA

CITY           SKY/WX    TMP DP  RH WIND       PRES   REMARKS
GOSHEN         PTCLDY    68  62  81 SW9       29.91S
6HR MIN TEMP:  68; 6HR MAX TEMP:  78;

LOGANSPORT +   MOCLDY    64  59  82 SW7       29.95F
PERU/GRISSOM   MOCLDY    66  62  85 SW8       29.94F
6HR MIN TEMP:  66; 6HR MAX TEMP:  78;

ROCHESTER +    CLEAR     70  64  83 SW5       29.94S
SOUTH BEND     CLEAR     71  63  75 SW12      29.91S
6HR MIN TEMP:  71; 6HR MAX TEMP:  82;

WARSAW +       CLEAR     70  61  73 W7        29.93S

$$

INZ006>009-017-018-025>027-020700-
NORTHEAST INDIANA

CITY           SKY/WX    TMP DP  RH WIND       PRES   REMARKS
ANGOLA *+      PTCLDY    68  63  83 CALM      29.92R
AUBURN +       CLEAR     68  59  73 SW5       29.93S
FORT WAYNE     PTCLDY    67  61  81 SW7       29.94S
6HR MIN TEMP:  66; 6HR MAX TEMP:  80;

HUNTINGTON +   PTCLDY    68  61  78 SW5       29.94S
6HR MIN TEMP:  68; 6HR MAX TEMP:  78;


$$

INZ028-029-035-036-043>045-051>053-020700-
WEST CENTRAL INDIANA

CITY           SKY/WX    TMP DP  RH WIND       PRES   REMARKS
CRAWFORDSVL +  CLOUDY    64  60  87 S5          N/A
6HR MIN TEMP:  63; 6HR MAX TEMP:  75;

GREENCASTLE +  PTCLDY    63  59  88 CALM      30.00S
LAFAYETTE      MOCLDY    67  64  90 W3        29.95S
6HR MIN TEMP:  66; 6HR MAX TEMP:  77;

TERRE HAUTE    CLEAR     63  61  93 CALM      29.98S
6HR MIN TEMP:  63; 6HR MAX TEMP:  81;


$$

INZ030>032-037>040-046>048-054>057-064-065-020700-
CENTRAL INDIANA

CITY           SKY/WX    TMP DP  RH WIND       PRES   REMARKS
FISHERS *+     MOCLDY    68  61  77 SW5       29.99R
FRANKFORT +    CLOUDY   N/A N/A N/A S3        29.99S
GREENWOOD *+   PTCLDY    66  57  72 SW3       30.00R
INDIANAPOLIS   MOCLDY    67  59  75 SW7       29.97S
6HR MIN TEMP:  66; 6HR MAX TEMP:  79;

-EAGLE CREEK   MOCLDY    68  61  78 CALM      29.98R
6HR MIN TEMP:  68; 6HR MAX TEMP:  79;

KOKOMO *+      MOCLDY    70  59  68 SW9       29.96F
6HR MIN TEMP:  70; 6HR MAX TEMP:  79;

MARION +       MOCLDY    65  59  81 SW7       29.96F
MT COMFORT *+  PTCLDY    64 N/A N/A CALM      29.99S
SHELBYVILLE    PTCLDY    66  60  81 S5        29.98S
6HR MIN TEMP:  65; 6HR MAX TEMP:  79;

ZIONSVILLE +   MOCLDY    65  60  85 CALM      29.99S
6HR MIN TEMP:  64; 6HR MAX TEMP:  76;


$$

INZ033-034-041-042-049-050-058-059-020700-
EAST CENTRAL INDIANA

CITY           SKY/WX    TMP DP  RH WIND       PRES   REMARKS
MUNCIE         MOCLDY    69  58  67 SW7       29.97S
6HR MIN TEMP:  68; 6HR MAX TEMP:  76;


$$

INZ060-061-067>069-081>083-085>088-020700-
SOUTHWEST INDIANA

CITY           SKY/WX    TMP DP  RH WIND       PRES   REMARKS
EVANSVILLE     CLEAR     68  64  87 CALM      30.01R
6HR MIN TEMP:  67; 6HR MAX TEMP:  85;

HUNTINGBURG *+ CLEAR     64  61  88 CALM      30.00S
6HR MIN TEMP:  64; 6HR MAX TEMP:  82;

WASHINGTON +   CLEAR     63  59  87 CALM      30.00R
6HR MIN TEMP:  63; 6HR MAX TEMP:  81;


$$

INZ062-063-066-070>080-084-089>092-020700-
SOUTH CENTRAL AND SOUTHEAST INDIANA

CITY           SKY/WX    TMP DP  RH WIND       PRES   REMARKS
BLOOMINGTON    PTCLDY    61  60  97 CALM      30.00S
6HR MIN TEMP:  61; 6HR MAX TEMP:  79;

MADISON *+     PTCLDY    63  59  88 CALM      30.03S
NORTH VERNON + CLEAR     64  64 100 CALM      30.00F
SEYMOUR +      CLEAR     61  61 100 CALM      30.00S

$$




USA.gov is the U.S. government's official web portal to all federal, state and local government web resources and services.